Satellite-Ground Cal/Val Site Overpasses Predictions

Prediction of Satellite NPP Overpassing Cal/Val Site: Antarctic Dome C

Ground Cal/Val Site Location: Latitude: -75.10, Longitude: 123.35; Satellite-Ground Site NADIR distance within 100 km.

Table of predicted overpasses for the next 14.0 days since TLE Epoch: 2/15/2025
Interval Starting Time Ending Time Minimum Distance Time Minimum Distance (km)
1 02/15/2025 14:49:34 02/15/2025 14:50:03 02/15/2025 14:49:49 10.11
2 02/17/2025 07:32:23 02/17/2025 07:32:52 02/17/2025 07:32:37 1.85
3 02/20/2025 14:55:48 02/20/2025 14:56:16 02/20/2025 14:56:02 26.10
4 02/21/2025 14:37:04 02/21/2025 14:37:21 02/21/2025 14:37:13 81.16
5 02/22/2025 07:38:36 02/22/2025 07:39:04 02/22/2025 07:38:50 36.29
6 02/23/2025 07:19:50 02/23/2025 07:20:10 02/23/2025 07:20:00 73.69
7 02/25/2025 15:02:04 02/25/2025 15:02:27 02/25/2025 15:02:15 62.71
8 02/26/2025 14:43:12 02/26/2025 14:43:38 02/26/2025 14:43:25 46.79
9 02/27/2025 07:44:53 02/27/2025 07:45:13 02/27/2025 07:45:03 70.89
